GFSSW_700_rhum_189.txt.gz
RH
27 26 25 24 23 24 22 20 18 16 15 14 12 11 11 12 12 12 13 13 16 17 18 19 20 22 25 33 41 52 62 63 63 53 55 57 55 55 50 45 58 58 47 48 50
29 28 27 26 25 25 24 23 20 17 16 16 13 10 10 10 11 11 13 13 14 16 17 19 23 25 26 32 44 55 52 63 63 59 62 59 60 58 56 52 56 64 57 50 54
30 30 31 30 28 26 26 25 23 19 17 16 15 12 8 8 10 12 17 16 15 16 21 24 24 24 29 35 45 54 53 62 59 66 66 59 64 55 54 58 54 55 56 55 60
34 33 32 31 32 30 28 27 25 22 18 16 15 15 11 8 15 22 21 24 26 24 22 23 24 25 33 44 51 53 49 70 70 64 65 62 63 58 54 51 43 47 54 56 62
36 36 35 35 34 34 32 29 28 25 21 18 17 16 15 12 10 13 15 16 21 23 18 17 21 29 39 51 78 54 65 58 52 51 57 58 55 56 41 50 49 50 57 51 49
44 40 38 38 39 37 35 33 31 28 24 22 20 18 17 14 15 17 19 16 23 17 15 16 20 30 48 61 68 61 51 64 43 35 31 34 32 30 31 36 38 50 51 53 46
35 46 44 42 43 42 40 36 34 32 27 26 24 21 18 17 15 13 13 18 18 17 20 20 20 27 42 53 53 48 48 48 37 20 19 16 17 14 21 38 36 44 55 56 51
13 33 51 47 47 48 44 41 39 36 34 29 29 23 20 18 15 13 13 19 19 25 20 18 19 23 27 31 29 25 24 22 22 27 26 23 20 22 19 22 21 23 29 38 36
2 10 34 60 50 49 50 45 41 42 39 34 32 28 23 22 17 16 14 18 25 22 29 31 28 25 26 26 25 23 24 36 38 38 39 32 22 20 22 27 24 18 18 18 17
2 4 36 47 69 55 56 50 47 47 44 40 36 31 26 29 20 22 19 21 27 26 32 32 27 24 23 21 32 43 43 35 34 35 34 29 24 25 26 26 22 24 19 20 23
2 7 17 53 74 70 68 66 56 54 47 43 43 35 28 31 33 23 22 21 29 30 34 34 31 27 26 25 43 44 39 35 33 29 30 28 25 25 25 25 24 20 18 23 24
2 4 36 11 64 47 48 71 74 63 54 48 46 43 35 27 30 21 20 20 22 29 40 46 36 35 41 45 45 37 41 33 31 32 32 30 27 23 24 23 24 30 31 22 37
3 2 7 34 9 14 26 67 86 77 67 47 44 42 38 35 31 34 22 25 22 32 42 42 38 34 43 44 49 42 31 31 36 36 34 30 27 28 26 27 32 34 33 32 36
4 4 4 32 27 17 26 72 90 96 82 58 43 34 38 38 37 32 31 32 30 33 47 49 43 39 40 38 35 31 35 35 35 34 32 35 42 26 25 28 30 34 34 34 33
10 8 5 44 49 32 45 57 100 97 94 50 48 50 47 44 44 41 44 38 36 35 48 42 40 38 38 37 37 35 37 38 35 32 35 31 38 27 31 32 31 34 35 35 35
48 22 10 24 52 51 90 72 100 97 93 57 58 55 56 67 59 47 55 42 41 48 47 44 42 41 39 40 39 35 37 35 42 38 55 33 35 29 29 28 28 27 22 26 26
96 73 22 42 70 63 100 100 100 96 57 55 52 53 64 71 70 58 56 49 48 52 48 46 47 44 39 41 41 39 36 65 74 73 65 46 36 29 24 27 26 24 18 18 18
97 92 40 46 59 85 97 100 98 93 58 54 52 50 56 63 69 64 62 51 51 50 48 48 55 50 46 43 38 37 37 65 80 98 68 39 33 26 28 27 26 24 24 18 18
96 94 65 44 94 73 86 97 80 89 68 63 60 57 67 62 57 66 61 55 42 53 51 54 49 49 48 46 44 43 44 44 40 42 47 33 32 30 31 29 26 24 22 20 20
98 96 69 55 68 81 99 98 80 68 89 89 67 53 47 59 58 65 64 53 51 52 55 56 52 55 50 46 48 42 40 41 39 73 81 54 36 30 25 26 24 21 20 22 22
96 97 68 59 100 97 87 90 82 69 69 81 90 60 50 50 54 58 53 52 54 55 55 54 49 57 55 48 45 46 46 43 42 61 85 76 40 28 26 24 21 21 23 24 28
96 98 82 79 89 96 95 85 61 86 80 97 97 75 56 53 52 58 57 59 56 58 60 58 58 51 49 47 43 44 40 38 43 58 55 62 46 29 29 32 28 24 26 28 36
95 97 85 100 97 94 75 78 96 98 91 95 87 72 65 63 55 56 53 68 60 60 56 60 56 62 62 56 49 49 44 40 39 53 44 54 39 34 36 33 36 37 38 38 35
97 96 91 90 98 100 90 95 90 92 96 90 91 92 78 82 65 61 63 65 69 60 57 58 52 46 54 43 39 46 43 47 42 50 52 43 36 38 39 43 46 45 44 41 42
96 84 81 74 94 99 97 95 98 97 97 97 94 78 88 80 79 65 64 68 69 63 55 59 54 50 59 62 43 40 38 40 42 38 39 35 36 37 39 44 46 47 47 47 45
96 98 83 96 88 90 94 91 88 93 79 80 70 78 87 93 84 70 61 56 48 57 58 57 52 49 56 58 55 50 48 45 43 41 40 39 39 43 46 51 52 49 48 42 34
97 89 89 81 97 91 88 96 96 94 97 87 91 95 94 81 95 88 59 54 49 48 54 60 57 57 65 66 68 71 44 46 46 45 44 45 40 45 45 50 46 37 32 33 38

GFSSW_700_rhum_192.txt.gz
RH
29 28 26 25 24 23 21 22 23 20 18 18 17 12 11 11 11 11 11 12 14 17 18 20 21 24 27 34 40 46 56 45 47 50 47 50 52 54 52 52 50 48 44 44 42
34 32 30 28 27 25 24 23 22 23 20 18 18 15 10 10 10 11 11 11 13 15 17 20 22 26 29 33 42 49 43 49 52 57 52 48 56 59 57 56 52 47 44 44 46
37 36 36 34 31 30 28 26 24 23 24 20 18 18 14 10 9 10 12 12 13 14 16 18 24 28 31 35 41 44 38 46 58 62 63 64 63 64 62 58 55 54 52 49 52
29 41 40 37 37 34 32 30 27 25 25 24 19 18 17 13 15 18 23 21 18 17 23 26 30 31 31 35 38 41 41 51 61 66 64 64 65 66 66 62 56 52 56 58 60
4 12 28 44 40 36 37 35 31 28 26 26 24 19 19 16 14 14 12 14 18 22 24 26 26 29 33 38 52 48 50 55 64 60 58 70 68 67 64 61 57 44 42 48 55
3 3 3 15 42 45 39 38 38 33 29 26 27 24 21 19 21 21 21 20 20 23 23 20 23 31 41 43 60 48 50 66 66 57 52 54 52 61 51 40 44 42 53 53 49
2 2 4 5 8 36 48 42 40 39 35 30 28 29 24 23 24 21 23 23 21 24 18 16 19 28 32 44 54 51 62 54 56 44 48 27 21 19 34 30 28 32 47 52 49
1 1 2 4 12 22 48 49 45 42 42 36 33 32 27 24 23 20 21 24 24 20 19 19 19 25 39 50 49 56 58 63 33 24 25 23 21 21 19 20 24 28 36 51 57
1 1 2 2 3 33 48 55 51 47 45 43 38 37 29 26 22 24 22 26 28 21 22 20 21 30 40 46 42 31 25 25 24 26 33 34 28 23 23 22 23 27 28 34 40
2 2 2 2 3 4 42 63 62 60 54 49 45 41 33 31 27 32 30 30 25 23 21 24 27 31 37 37 30 25 23 32 32 34 36 34 29 27 23 24 27 30 28 27 25
2 2 2 3 10 16 18 62 59 66 68 55 53 42 37 36 41 35 34 27 27 26 29 31 30 28 26 26 29 33 39 41 35 34 33 29 27 28 27 24 22 22 20 22 25
2 3 3 3 38 34 26 70 61 60 56 45 58 55 47 41 42 39 34 28 29 30 33 32 30 29 30 28 29 44 44 42 34 34 33 31 25 26 29 25 23 24 24 23 24
4 6 6 5 36 43 45 17 36 66 76 22 38 48 50 43 40 42 38 27 24 30 35 34 36 35 34 42 43 45 42 39 35 34 35 34 27 22 22 23 24 25 28 33 32
93 53 17 14 9 29 46 45 61 96 98 40 19 30 48 49 43 42 49 42 29 27 36 44 42 38 36 40 44 50 44 33 32 36 35 32 38 23 22 22 26 27 29 34 32
74 95 94 84 44 34 49 86 100 100 96 42 44 55 48 44 40 38 41 53 38 32 45 43 46 43 42 40 43 41 35 36 38 37 33 32 35 23 22 23 25 28 30 33 34
97 94 93 93 54 46 74 100 99 96 93 54 61 59 61 54 50 48 52 60 45 50 58 51 44 47 42 39 39 37 37 40 38 37 54 32 33 24 26 26 27 28 30 33 35
93 95 96 95 50 61 72 100 98 98 60 56 56 63 78 71 78 63 61 65 51 61 53 52 47 45 45 42 43 41 38 64 66 66 69 43 39 29 24 24 27 24 25 29 33
94 88 94 97 90 76 76 99 97 60 54 72 64 69 75 88 94 77 68 68 61 52 50 51 54 47 45 44 38 41 34 46 62 96 78 44 44 30 24 23 25 24 23 20 21
94 82 84 97 97 77 98 98 83 67 59 54 76 80 94 87 78 77 72 66 59 54 44 48 47 47 47 43 42 44 41 38 44 45 50 37 33 28 26 27 27 24 21 18 19
95 93 70 98 95 93 98 96 94 74 73 63 74 92 68 78 78 72 74 66 63 54 52 51 48 55 52 51 48 42 39 44 47 73 74 56 39 27 26 23 27 25 22 19 20
97 97 58 98 97 97 97 98 100 82 88 78 71 96 96 93 76 65 61 50 58 54 57 65 48 58 57 56 50 49 48 40 38 50 78 73 40 30 30 26 19 20 19 20 21
97 95 62 81 97 82 100 97 89 75 71 92 89 86 76 97 89 62 58 50 62 61 53 67 55 56 56 51 50 49 42 39 35 64 60 59 39 28 26 24 28 27 21 22 25
95 74 73 98 96 74 95 94 97 97 94 97 91 93 72 97 96 76 57 55 62 67 51 63 59 62 65 57 53 50 47 42 44 41 43 53 35 31 27 30 29 26 26 28 32
98 96 94 68 87 74 81 97 96 87 93 78 75 89 85 97 97 93 66 62 67 65 67 60 58 51 60 43 39 45 40 43 41 42 44 34 33 30 31 33 35 37 39 42 42
93 93 93 97 99 97 96 98 98 96 82 84 96 90 91 97 96 97 88 68 70 68 67 63 63 55 50 59 44 40 34 37 40 37 37 30 31 33 35 35 36 40 43 44 45
95 93 95 97 89 89 92 98 93 96 90 87 86 87 94 96 95 98 93 81 67 67 62 63 57 58 63 63 49 45 42 43 41 40 37 34 34 37 40 41 42 44 48 48 50
86 98 96 93 92 90 75 81 88 93 94 98 96 96 72 54 90 98 96 97 96 66 53 60 57 55 65 64 60 58 45 43 39 37 36 38 34 38 41 44 45 48 49 50 37

GFSSW_700_rhum_195.txt.gz
RH
35 32 30 29 29 28 28 27 24 24 23 20 18 17 15 11 11 11 12 13 14 15 19 24 25 25 30 36 44 49 55 40 44 47 42 42 52 54 53 51 50 49 49 49 43
17 28 36 35 32 31 30 30 29 26 24 24 21 17 16 14 9 10 12 13 14 15 17 20 22 24 28 33 46 53 43 43 46 46 45 47 54 54 54 52 53 53 51 48 44
2 3 9 26 37 37 34 32 31 31 28 24 24 20 16 16 13 10 12 15 15 16 17 21 22 24 26 30 38 45 37 43 46 49 52 50 54 56 57 56 54 54 54 54 53
2 2 2 2 6 21 39 37 34 33 32 30 25 24 19 16 17 22 20 28 27 23 20 20 24 26 28 33 36 39 41 43 50 54 58 59 62 62 61 59 57 59 60 56 54
2 2 2 2 2 2 7 25 40 37 36 33 30 26 24 18 18 17 14 19 23 32 30 29 29 31 34 32 39 42 46 54 53 56 54 60 65 67 63 66 65 62 59 56 51
4 2 2 2 2 2 3 5 16 40 40 38 35 30 26 23 21 20 18 20 27 32 32 30 37 42 43 38 43 51 51 54 55 54 52 57 54 58 51 53 61 61 57 54 43
4 3 2 1 2 3 3 4 6 24 40 42 40 37 30 26 26 22 21 24 28 34 36 33 37 46 47 48 62 64 67 62 56 52 58 50 40 30 34 40 53 46 50 46 45
5 3 2 2 2 5 5 5 8 22 30 43 44 41 36 31 27 25 23 23 24 29 36 32 47 62 72 66 68 73 71 75 55 45 43 40 28 22 18 17 24 34 38 45 46
4 3 2 2 2 2 5 12 31 39 42 50 48 48 39 35 30 29 25 27 27 30 32 33 70 80 75 74 70 67 62 51 50 34 28 30 26 25 23 21 17 18 25 32 40
3 3 2 2 2 4 16 8 37 60 64 63 58 45 34 36 33 34 33 31 34 34 26 32 71 83 85 69 61 39 38 27 28 26 24 29 28 29 26 21 19 19 20 24 31
4 4 4 3 3 6 78 49 44 54 64 46 60 56 48 42 35 38 40 42 44 33 25 29 65 58 36 45 40 28 29 26 26 31 35 34 30 30 28 25 21 21 23 25 24
29 17 12 10 5 5 40 67 36 70 70 60 52 47 46 50 51 42 43 51 41 30 25 31 31 32 41 50 51 35 35 39 38 36 34 32 27 27 29 24 25 24 21 20 22
28 64 92 96 52 14 12 40 60 61 92 30 43 43 23 49 47 48 47 45 42 35 31 30 30 32 35 36 44 38 41 43 40 35 34 33 28 22 23 26 24 26 27 25 23
84 81 81 85 90 50 12 20 81 73 100 56 8 11 13 22 48 46 51 54 39 35 36 36 32 40 33 33 32 32 37 43 43 35 35 34 38 21 19 20 23 24 25 25 26
92 100 97 97 94 80 46 29 53 100 100 41 19 16 13 20 25 31 47 51 54 37 39 37 36 44 43 35 46 46 49 48 38 36 37 35 33 23 20 21 21 20 24 26 28
95 96 97 97 97 82 84 68 96 98 93 51 37 32 33 44 66 65 65 63 67 54 42 35 45 54 43 43 51 52 46 40 40 39 52 32 30 23 20 20 22 22 27 29 30
83 82 95 94 84 98 93 98 96 96 58 57 55 59 58 57 79 79 71 80 79 67 67 62 52 54 54 46 48 48 39 62 55 63 68 39 39 23 24 21 23 25 25 28 31
92 89 74 92 72 95 98 99 96 78 58 58 58 60 69 81 84 80 72 94 84 58 56 60 58 54 50 48 46 45 39 43 53 84 66 46 44 27 27 25 21 21 20 23 29
96 92 81 75 75 88 97 97 84 76 46 62 72 73 93 95 86 97 78 71 70 63 47 54 49 50 47 47 44 46 42 39 53 53 55 46 40 30 24 23 23 23 20 18 19
93 92 73 84 86 100 97 97 83 63 67 61 63 58 57 86 98 95 96 82 70 63 54 51 49 50 50 50 46 43 41 42 44 65 63 50 39 22 23 24 25 25 20 16 17
95 89 72 97 90 98 96 97 86 74 82 72 66 62 72 87 96 96 96 74 70 64 58 61 49 57 55 54 50 48 46 40 40 40 70 72 38 26 24 22 20 24 20 16 17
95 91 78 95 98 95 93 86 68 90 92 76 86 72 70 82 94 97 94 79 62 68 64 57 59 58 60 56 53 49 46 41 37 54 61 53 35 27 27 28 19 18 18 18 20
94 85 89 94 99 92 95 89 98 97 83 82 90 82 78 86 95 80 92 92 78 77 69 60 70 68 72 61 58 55 52 44 39 43 44 50 31 26 26 24 23 25 22 20 23
91 95 96 88 87 99 80 86 98 74 85 96 78 90 84 94 87 78 98 94 87 72 70 60 66 54 63 48 48 53 48 47 42 44 41 34 29 27 27 26 27 28 26 26 28
87 94 85 96 79 83 70 80 82 87 96 96 98 98 88 89 94 97 97 97 96 83 82 63 63 64 55 52 49 42 40 43 45 42 37 29 30 29 28 29 31 33 34 36 39
94 96 83 84 95 79 96 98 76 83 93 83 87 80 82 89 88 93 95 96 96 93 97 72 66 63 64 57 52 50 46 43 41 41 40 33 30 30 34 36 36 36 37 40 43
96 97 91 95 96 96 90 94 98 94 87 94 85 91 83 77 90 90 97 97 96 96 96 93 72 64 71 66 65 64 45 40 37 35 34 34 26 33 35 36 37 39 41 44 47

GFSSW_700_rhum_201.txt.gz
RH
6 6 6 5 5 4 2 3 9 32 33 28 25 24 22 20 19 18 11 12 14 15 21 26 29 33 38 46 47 50 56 45 39 36 36 36 39 46 48 46 49 48 46 44 43
6 6 6 7 6 6 5 3 2 3 24 36 31 26 24 22 20 19 16 11 13 15 18 23 28 33 42 48 54 56 54 40 37 37 39 39 38 42 47 48 47 47 46 47 48
6 6 7 7 7 7 6 5 3 2 3 13 37 34 27 25 22 20 18 15 11 14 20 23 29 35 40 43 51 57 44 41 39 40 40 41 38 44 46 48 44 47 50 50 52
8 8 8 8 8 7 7 5 4 3 3 3 9 30 36 29 26 24 23 22 16 16 22 26 29 34 41 46 46 54 45 44 47 46 45 45 40 40 49 50 48 54 54 52 53
11 11 10 9 8 8 7 6 4 2 2 3 4 9 16 31 30 26 24 20 27 31 26 29 30 32 37 43 52 52 49 53 57 51 51 50 45 45 42 51 54 55 53 55 55
11 11 10 9 8 8 6 6 5 3 2 2 5 6 8 10 29 32 26 26 21 22 26 35 38 40 43 46 58 54 52 54 56 58 57 56 55 48 41 46 53 52 54 57 57
14 8 7 7 7 6 6 5 4 5 3 2 4 10 7 8 23 38 31 29 27 27 29 39 44 49 47 48 59 62 59 58 54 64 68 60 52 30 45 42 47 55 58 56 60
7 6 6 5 5 4 4 4 4 4 13 7 6 13 11 12 22 29 38 33 30 28 34 46 49 67 65 67 66 64 76 83 50 52 64 62 33 35 34 35 42 46 47 48 50
4 5 5 5 5 6 5 4 4 16 47 43 18 27 11 7 12 22 37 40 36 33 37 55 62 85 87 87 84 92 92 67 64 60 58 60 40 34 39 32 30 31 32 33 38
4 4 5 5 6 8 19 10 9 16 64 74 54 47 18 15 16 20 40 44 40 38 55 60 71 78 100 99 90 83 72 75 74 60 54 56 36 38 29 31 33 25 19 20 21
30 58 45 57 71 65 80 90 51 20 9 53 63 38 37 20 22 42 47 47 46 50 57 58 56 66 36 64 78 64 76 73 61 59 58 41 42 35 40 28 24 22 20 20 19
92 92 81 89 95 95 90 98 92 84 47 26 44 68 68 47 47 46 56 54 57 58 58 74 70 40 49 66 92 86 66 52 43 39 38 38 27 24 26 23 24 25 23 21 20
78 91 89 82 96 93 97 84 97 97 98 86 82 75 54 63 75 68 64 65 67 68 65 59 53 45 53 68 97 100 92 82 48 40 39 36 30 23 24 26 25 26 25 23 20
76 84 78 81 86 78 82 96 95 98 97 77 53 58 70 65 61 69 88 82 77 68 74 72 64 48 42 58 76 100 79 89 85 56 44 40 43 25 22 24 22 22 21 21 20
72 72 81 87 90 77 87 82 97 98 96 55 60 48 48 63 41 34 50 86 78 72 72 65 50 46 45 32 36 64 60 75 85 51 48 45 39 29 24 19 18 18 19 20 21
79 78 89 87 84 78 89 97 97 97 95 58 64 60 68 50 56 47 54 92 96 93 88 73 55 43 39 37 47 51 71 63 72 54 58 44 40 31 25 18 17 16 17 19 21
82 80 87 93 77 94 96 97 97 96 65 66 57 51 60 52 92 78 58 95 96 97 93 81 62 52 56 48 45 58 52 64 64 66 74 42 44 31 23 19 17 16 17 17 20
73 72 79 85 92 94 97 98 96 84 83 52 53 46 67 72 99 91 75 96 100 81 73 76 71 58 56 58 55 56 44 54 70 75 55 49 48 26 22 21 18 16 16 17 19
76 80 74 95 87 93 100 96 94 75 79 84 50 47 53 80 70 94 86 71 63 79 70 71 65 54 52 54 53 55 52 47 47 65 64 43 37 26 20 18 19 18 17 17 18
77 70 78 83 88 89 98 96 94 73 81 96 86 72 52 55 78 89 90 81 84 72 81 68 66 61 56 58 57 51 48 53 46 72 68 50 42 23 21 19 18 20 19 19 18
75 75 79 84 88 89 97 93 82 79 70 76 88 82 62 52 55 78 80 76 76 79 95 95 71 63 62 59 55 55 53 49 47 46 62 51 29 19 19 22 22 22 22 21 20
81 89 80 82 89 99 100 92 85 70 69 71 81 86 80 56 54 66 64 61 66 72 93 94 96 70 62 57 55 53 48 49 43 57 46 51 32 21 20 21 22 23 23 23 20
77 92 78 71 78 73 76 86 79 63 70 91 84 90 91 72 69 66 63 68 75 82 92 94 96 92 74 67 59 54 51 47 44 40 41 49 32 22 23 22 24 24 23 22 17
87 81 71 67 96 98 96 81 82 80 80 98 91 95 97 87 85 86 83 75 82 81 92 98 96 76 69 55 54 58 53 50 48 45 43 40 31 29 27 23 24 20 21 19 16
83 81 77 83 78 84 95 90 86 90 91 84 95 95 88 90 94 96 90 85 92 100 89 97 94 84 64 57 50 46 47 49 48 44 44 39 34 29 27 25 27 20 17 17 16
97 93 99 86 84 90 97 82 82 76 89 83 87 69 88 92 88 86 81 86 96 83 97 97 97 91 81 73 60 51 49 46 44 46 45 42 38 33 32 26 25 21 20 20 18
92 93 99 86 91 94 97 97 97 98 78 72 82 98 87 80 97 98 96 96 97 95 96 97 96 96 95 85 70 68 51 48 47 46 45 44 35 35 31 28 26 28 30 29 26

GFSSW_700_rhum_207.txt.gz
RH
10 10 9 7 6 6 6 7 7 7 7 7 7 4 3 19 29 23 21 20 18 14 14 17 24 34 43 49 59 60 98 74 50 52 44 48 45 31 48 46 40 42 45 37 40
11 11 10 9 8 9 9 9 8 8 8 7 7 6 5 3 15 29 24 22 21 18 13 16 20 30 43 54 60 68 88 68 55 54 56 57 50 38 34 41 43 45 47 45 44
14 14 12 12 11 11 11 11 10 10 10 10 8 7 6 4 4 11 30 25 23 20 15 15 27 36 46 63 70 71 82 70 69 62 60 65 46 57 40 52 38 43 48 47 46
24 22 19 17 16 14 13 13 11 10 9 9 8 7 6 4 22 20 27 30 25 22 19 18 70 67 82 82 80 74 78 85 82 74 50 51 59 44 40 56 54 57 45 51 50
32 29 27 24 21 18 17 14 14 10 8 7 8 8 7 6 4 9 26 32 28 28 25 27 65 84 95 94 97 97 85 93 93 70 57 61 50 44 45 56 46 52 41 50 52
10 8 7 7 7 7 7 7 7 7 6 6 6 7 10 11 11 8 11 23 36 42 34 74 97 95 94 88 93 94 91 94 80 96 65 59 54 53 39 44 39 46 46 49 53
3 3 3 3 3 3 3 3 4 4 5 8 7 41 23 20 15 16 15 18 53 53 69 82 100 99 99 91 90 92 95 95 92 86 90 62 58 64 42 41 35 41 48 54 55
3 3 3 3 3 3 4 3 4 4 4 7 16 36 52 25 15 13 12 36 74 68 77 89 95 98 100 94 92 91 86 77 76 85 91 67 56 43 38 39 37 38 43 49 55
4 5 7 15 19 29 44 29 27 20 13 13 27 27 48 66 35 19 14 20 74 80 83 58 75 92 98 100 79 82 64 69 60 86 86 62 62 46 57 62 37 39 42 42 54
9 19 34 40 38 60 64 71 72 82 66 75 76 62 55 98 41 30 14 20 37 82 79 75 94 92 100 85 67 56 60 47 55 70 85 87 49 63 50 48 34 41 49 50 50
27 81 84 63 57 65 67 73 73 97 81 77 88 64 61 86 58 29 23 20 34 67 78 78 99 97 97 86 67 58 51 53 56 64 80 80 79 49 65 40 38 34 55 62 38
70 71 72 69 63 66 68 73 78 95 79 93 99 96 71 99 67 67 64 78 95 96 100 100 99 94 97 87 86 77 69 59 58 67 75 68 65 66 68 61 29 31 35 56 49
43 62 61 63 66 65 77 80 89 92 98 61 71 83 96 96 85 93 67 91 100 100 100 98 76 87 89 88 83 78 74 60 55 50 53 50 44 29 34 24 38 28 32 34 38
36 54 55 60 63 84 90 95 96 94 97 85 40 47 95 98 96 93 97 97 100 96 92 96 79 83 87 82 79 72 74 60 58 57 42 45 30 23 27 22 27 26 29 28 25
50 51 52 61 67 81 87 85 90 94 92 72 80 88 64 72 54 65 98 97 97 93 95 92 79 88 80 79 82 74 70 75 72 71 58 52 45 30 28 33 25 23 22 24 24
48 46 58 66 76 80 85 89 93 96 81 67 95 90 93 96 92 57 85 94 97 93 85 82 82 88 80 81 86 85 85 78 81 69 66 57 44 28 29 25 22 21 21 21 20
46 51 64 68 79 76 86 96 96 89 64 87 76 88 83 77 95 78 93 98 98 98 98 94 85 73 79 79 85 88 81 73 76 74 69 44 49 33 27 27 25 24 20 20 21
43 56 61 65 70 85 92 95 95 64 75 90 71 92 89 86 91 86 90 95 98 88 93 95 88 78 75 69 72 84 68 56 56 62 44 48 43 38 24 32 26 22 21 20 22
42 59 63 71 71 84 90 100 78 77 82 91 91 82 92 96 93 88 88 94 86 90 78 79 59 62 66 63 63 78 70 59 50 41 38 38 36 32 23 21 22 21 21 20 19
45 59 67 73 79 89 93 100 87 82 81 92 92 87 69 78 93 94 81 72 87 90 78 67 66 67 63 70 61 60 60 65 66 78 45 26 30 24 23 21 21 20 19 19 18
59 60 74 81 93 85 95 91 74 74 91 96 90 96 94 94 88 94 77 64 64 85 86 74 66 68 70 69 61 61 54 52 54 50 44 30 25 27 28 23 23 22 20 21 17
59 65 68 76 79 83 90 89 87 94 97 96 84 79 85 89 92 80 85 78 77 72 86 92 81 66 66 62 62 60 54 50 55 70 56 50 33 24 23 22 22 23 22 22 19
55 54 57 65 88 100 97 94 99 96 98 98 96 74 80 94 90 95 82 92 88 84 85 90 89 76 60 66 62 61 57 55 52 58 52 41 30 23 25 24 23 23 23 23 20
66 68 62 80 92 92 88 87 89 98 95 98 95 82 77 89 99 77 98 92 84 97 95 88 92 76 56 50 60 64 60 61 62 62 48 44 34 29 31 28 26 25 25 24 22
72 75 76 84 91 88 96 94 100 97 91 78 92 81 100 83 97 94 86 92 87 76 92 91 87 92 82 72 82 68 55 57 59 62 54 41 38 35 35 31 27 25 24 24 23
69 78 73 77 79 87 94 96 95 92 99 82 81 90 100 87 83 98 78 79 89 88 97 91 93 91 80 82 84 70 70 64 53 57 58 47 41 35 35 35 30 27 25 23 23
74 80 77 84 88 93 98 96 93 96 86 99 99 98 90 96 94 90 78 72 78 89 98 99 99 96 78 68 83 78 65 61 57 52 55 54 48 42 38 34 30 30 27 24 20

GFSSW_700_rhum_210.txt.gz
RH
17 14 13 12 11 10 9 8 7 6 7 7 7 7 7 8 7 3 24 26 23 20 16 15 23 34 48 51 62 67 98 85 76 61 48 44 44 44 48 44 45 44 33 30 38
21 18 17 15 14 12 11 10 10 10 10 11 11 10 8 8 8 8 4 26 26 23 19 15 18 39 51 53 65 73 81 77 63 59 51 51 46 46 47 48 48 39 41 34 43
37 33 30 27 23 20 18 15 13 12 11 11 12 13 12 9 9 8 7 5 30 26 23 18 31 50 53 60 66 70 66 62 67 61 55 57 59 54 46 50 40 39 40 41 45
26 25 25 25 26 27 26 24 21 19 16 13 10 11 13 12 15 23 16 12 26 29 26 22 99 99 98 96 85 78 75 61 72 75 63 56 58 60 53 50 50 47 47 49 48
5 4 4 4 4 4 4 5 6 8 10 11 9 8 8 12 11 9 9 31 33 35 29 71 98 98 98 96 99 99 81 81 76 88 69 62 58 62 52 54 58 58 39 43 51
3 3 3 3 3 3 3 3 3 3 3 4 6 7 8 18 24 19 8 7 10 32 55 72 97 98 98 98 87 85 92 80 89 91 77 73 52 61 55 54 54 58 42 42 51
3 3 3 3 3 2 2 2 2 2 3 4 4 7 8 8 21 31 21 12 10 14 41 43 99 99 95 95 87 86 85 94 91 87 97 84 61 57 55 51 43 49 44 43 47
3 3 3 4 5 5 6 5 5 6 7 12 20 29 13 6 6 22 28 22 31 42 60 79 98 100 99 87 86 85 83 88 75 92 85 85 56 48 42 52 40 38 40 44 46
3 4 4 8 20 39 38 29 19 21 40 53 65 76 39 25 7 8 37 25 22 58 74 98 99 95 99 88 86 79 80 82 78 73 78 85 69 42 43 47 41 40 41 39 42
4 6 14 32 59 65 62 56 55 61 61 64 71 94 72 68 38 11 17 46 22 46 96 99 99 93 98 100 91 79 77 72 70 60 75 78 62 52 59 59 49 46 46 44 42
7 17 26 40 65 63 58 61 54 64 99 98 96 91 68 98 98 91 53 66 39 57 99 96 99 73 74 83 78 70 60 63 52 53 65 76 84 52 65 65 62 68 68 63 38
23 28 31 48 51 50 56 66 80 96 82 52 60 86 96 89 98 85 78 100 90 73 98 100 88 65 68 80 90 66 70 59 52 56 71 78 78 66 68 56 55 52 42 63 58
45 35 43 44 43 47 67 90 92 95 99 41 47 49 51 94 72 96 87 97 86 96 95 98 88 85 79 90 89 78 84 74 61 61 63 63 62 53 47 53 41 31 39 41 66
44 37 40 44 50 59 72 87 92 99 95 38 68 52 46 51 76 80 98 82 96 95 98 92 77 80 97 82 79 89 74 74 64 49 46 41 54 27 22 23 27 24 26 38 66
42 43 37 49 60 77 80 82 86 91 95 50 62 83 69 60 48 59 92 97 89 92 96 83 90 87 90 73 82 86 74 71 72 57 63 60 47 45 26 27 24 22 20 25 36
51 44 34 44 57 72 83 80 89 95 92 66 62 79 92 91 76 66 81 97 93 87 81 85 83 75 76 77 85 84 96 95 79 75 82 70 60 48 31 29 27 22 23 22 31
53 46 40 48 54 79 82 89 89 97 50 72 90 87 85 89 88 92 77 91 98 100 99 93 90 79 81 75 79 88 89 98 98 96 90 50 59 41 32 28 28 25 24 26 26
57 48 42 56 63 72 83 85 97 60 64 78 78 87 97 87 88 75 93 92 72 74 78 96 98 97 87 86 78 83 83 75 78 92 69 48 48 51 27 31 32 28 26 24 26
52 47 49 61 63 80 88 97 83 76 92 78 60 76 84 85 97 90 76 97 76 68 93 80 68 61 70 80 69 88 95 62 55 44 53 47 42 34 32 24 29 27 27 25 26
49 41 52 70 74 89 100 96 84 79 90 75 83 89 94 96 94 92 81 75 97 75 68 96 80 69 70 67 65 77 62 79 71 94 60 45 36 27 25 20 21 23 25 24 27
43 40 60 63 76 86 99 89 81 92 99 86 95 93 85 79 97 90 81 67 66 70 67 95 96 97 77 72 63 68 70 69 68 58 82 59 37 33 30 27 25 24 25 28 25
38 40 54 54 69 70 92 100 91 90 92 93 86 81 97 96 94 93 82 82 95 90 67 77 94 95 68 67 63 60 56 69 60 68 54 54 52 26 27 29 27 26 26 24 27
44 47 56 62 80 79 73 80 89 88 84 93 98 91 76 70 96 86 88 67 74 87 83 66 90 95 83 73 64 64 61 58 58 60 61 60 45 29 31 30 26 25 26 25 27
47 52 55 75 84 87 87 74 89 79 74 78 88 87 70 70 85 91 93 79 80 84 95 84 78 68 78 59 57 62 61 58 61 56 59 56 36 36 37 35 30 27 28 27 27
55 62 74 68 79 76 91 96 94 96 91 86 76 95 95 99 80 73 94 87 92 81 96 97 90 72 55 55 64 56 48 57 58 62 59 47 48 41 39 37 30 26 28 27 25
59 84 76 75 81 73 98 92 92 94 98 78 91 92 80 95 99 92 95 85 82 87 91 88 89 75 79 64 74 79 71 63 56 59 64 57 35 39 41 36 34 31 27 26 26
67 78 92 96 94 95 94 93 92 95 91 92 86 87 90 97 95 94 96 84 80 76 64 73 85 90 81 74 70 82 72 70 62 56 56 60 50 31 44 43 39 34 32 30 26

GFSSW_700_rhum_213.txt.gz
RH
54 47 40 32 26 19 15 14 12 10 9 8 7 8 8 7 7 8 8 7 26 26 22 17 19 50 80 88 79 66 100 72 50 52 38 47 44 43 39 37 48 40 28 30 32
43 41 39 35 35 33 30 25 20 17 13 11 11 11 11 11 10 9 8 8 6 27 25 20 18 71 85 88 90 77 81 73 52 46 44 49 49 44 43 40 46 42 36 32 38
12 11 9 9 8 7 9 15 24 26 24 21 17 14 13 12 12 12 10 10 9 6 29 24 31 81 97 100 89 79 94 78 62 70 62 59 52 48 45 44 48 42 37 36 42
4 4 4 3 3 3 3 3 3 3 5 14 18 18 17 16 22 23 17 16 15 11 28 28 51 76 97 97 96 82 80 71 61 76 68 64 52 54 52 48 45 48 43 46 43
5 5 5 4 3 3 3 3 2 3 3 3 3 4 7 12 18 18 16 16 34 34 33 30 28 71 97 97 99 95 85 73 64 79 68 68 60 56 53 53 47 44 41 46 52
6 5 4 3 3 2 2 2 2 2 2 2 3 5 6 5 6 13 20 14 11 31 37 36 30 66 89 92 97 96 82 78 71 82 84 72 66 62 55 52 59 56 44 43 46
5 4 3 3 2 2 3 3 4 4 4 3 4 10 27 11 6 9 15 20 16 8 9 38 65 91 80 91 88 88 95 81 72 89 96 89 75 70 60 56 52 59 54 49 48
4 3 2 3 3 4 6 7 12 18 19 22 22 70 28 20 26 10 12 22 23 14 10 40 89 91 90 90 91 98 98 99 74 88 95 92 66 60 56 57 52 52 52 52 50
3 3 4 6 10 12 18 33 49 51 50 51 54 64 40 36 39 19 9 12 31 47 26 54 84 99 99 98 98 87 80 92 94 83 76 83 80 61 52 51 54 47 42 44 47
3 5 8 18 24 36 44 45 44 47 52 53 56 80 73 56 65 72 21 14 34 48 77 98 98 98 99 89 92 91 79 78 81 71 79 82 82 65 49 46 55 49 41 39 42
6 11 26 28 34 38 38 38 46 62 78 73 70 98 87 98 91 82 78 26 60 60 72 93 99 89 83 95 99 78 69 74 73 59 70 75 79 52 58 51 64 62 55 48 43
13 23 32 31 32 36 48 64 86 98 89 51 55 52 46 79 89 89 100 84 54 81 54 99 98 91 98 100 86 82 74 74 72 66 59 64 70 65 62 59 59 67 66 59 46
14 31 40 33 36 52 62 69 91 100 93 31 36 35 46 48 68 82 98 98 78 100 86 98 92 100 100 99 97 84 79 78 77 78 77 74 82 78 71 62 60 69 70 68 53
17 35 44 34 40 51 69 77 80 87 88 50 72 79 60 87 53 54 96 98 98 95 99 97 97 88 99 88 65 72 63 74 84 79 91 77 73 61 58 51 47 41 64 72 66
24 53 50 39 40 48 69 71 76 94 100 54 70 78 97 90 74 56 75 98 96 97 97 83 87 89 94 69 60 68 80 73 77 95 62 52 48 45 36 32 32 29 30 53 60
27 49 51 38 51 57 67 74 84 98 95 60 75 83 78 95 74 72 76 85 97 99 83 93 80 78 62 86 67 56 70 81 79 97 86 64 65 60 40 28 27 24 19 21 41
30 43 48 41 53 60 63 75 84 98 62 77 67 58 64 96 94 77 90 91 94 98 98 88 94 77 83 92 89 75 83 99 99 99 86 54 60 59 38 33 23 22 22 20 38
25 37 38 42 57 63 74 73 84 72 80 62 54 50 81 93 95 88 98 98 88 96 99 96 95 84 78 81 80 93 82 95 91 96 85 54 64 48 29 32 31 26 26 27 29
23 30 35 56 60 68 77 74 83 92 93 83 57 65 85 89 97 90 87 82 90 93 96 96 78 67 82 83 71 96 97 78 64 61 65 50 46 39 28 27 31 30 29 28 30
24 28 40 55 54 66 65 80 86 90 91 88 95 95 87 81 90 99 92 76 81 82 88 98 95 87 84 92 78 64 67 69 67 79 65 57 43 35 31 22 24 27 29 26 28
30 35 44 48 52 55 72 88 84 75 93 93 92 90 84 98 96 100 96 83 68 68 87 98 82 89 96 97 90 79 84 78 67 60 86 69 46 36 34 30 29 28 26 29 27
31 45 47 48 62 67 69 81 82 80 84 93 92 93 96 82 87 97 94 98 92 94 88 97 97 96 95 76 78 71 82 78 80 77 62 60 51 29 29 32 30 29 30 31 26
36 45 46 57 67 74 85 84 95 89 77 82 87 90 87 68 93 95 86 91 76 96 87 89 96 96 96 85 71 67 64 72 65 60 55 60 45 36 38 36 29 28 31 32 32
42 44 55 59 70 78 82 87 83 79 82 92 82 74 88 74 88 84 79 85 82 77 85 90 89 72 71 70 66 66 63 60 73 67 62 54 41 36 45 41 35 27 30 31 28
50 59 68 69 82 86 99 96 93 90 74 79 78 94 100 97 82 82 97 95 92 87 82 92 90 80 58 43 54 54 54 59 58 66 63 54 44 42 48 39 34 28 30 30 31
66 74 73 81 86 95 96 95 98 87 95 96 93 77 83 97 99 94 95 99 96 91 87 97 96 75 70 74 69 57 50 56 59 58 59 57 46 48 48 44 41 36 31 29 29
64 81 74 85 93 96 100 87 78 95 95 99 94 82 71 86 94 93 94 98 98 100 87 90 95 88 80 60 64 84 69 54 49 45 53 58 37 40 41 43 45 43 40 32 29

GFSSW_700_rhum_216.txt.gz
RH
20 16 14 14 16 18 21 30 32 30 21 15 12 10 8 7 6 7 7 8 9 11 25 23 18 34 72 73 85 82 85 62 50 42 34 34 47 42 41 37 36 31 23 20 20
13 8 6 5 5 4 5 5 5 9 21 27 24 18 12 10 10 7 8 8 9 9 14 26 21 28 68 96 99 91 78 62 46 50 43 51 48 43 41 40 37 32 30 31 25
12 7 5 5 5 5 4 4 4 3 3 4 10 23 24 18 12 8 11 10 11 10 7 28 26 38 70 94 99 90 69 65 56 55 53 57 53 49 44 43 41 38 29 38 32
10 8 7 7 6 6 5 4 3 3 3 3 3 3 6 18 19 22 18 13 12 12 10 25 29 58 72 98 99 100 92 84 70 75 56 66 59 53 48 46 43 40 44 45 40
10 9 8 6 4 3 3 2 2 2 2 2 3 4 5 4 5 20 20 20 20 20 15 16 32 53 88 98 95 92 98 91 72 78 83 74 62 56 53 50 48 46 45 46 40
11 8 5 4 3 2 2 2 2 3 3 4 5 5 10 12 11 4 18 22 24 24 29 32 31 36 73 79 87 87 99 97 76 69 86 79 70 65 59 54 51 50 45 47 40
8 4 3 2 3 3 4 5 5 7 9 12 18 41 28 10 17 21 10 11 17 26 38 37 42 63 70 84 85 94 87 88 81 69 81 80 76 68 65 58 54 50 43 43 43
5 3 2 3 4 8 11 15 23 34 40 46 45 79 40 24 32 24 33 11 14 18 18 21 36 56 84 87 100 83 97 100 68 86 94 89 70 72 71 66 56 52 45 50 51
3 3 4 6 12 20 23 26 28 30 34 41 47 53 55 38 31 36 41 33 29 36 35 18 45 82 92 98 99 94 95 87 92 75 87 96 82 65 73 74 67 62 50 48 54
3 5 7 15 28 28 27 24 31 42 58 60 64 77 77 49 87 97 50 77 66 56 72 43 77 99 100 100 98 97 92 87 90 80 80 89 88 72 55 66 65 55 52 46 50
5 7 12 20 32 27 24 34 40 67 74 69 69 74 51 70 96 70 94 98 100 95 100 57 96 98 64 87 92 95 90 84 82 83 82 76 76 69 51 58 59 55 45 43 44
8 11 17 27 35 30 41 48 72 95 68 39 48 50 40 62 69 78 98 97 97 88 100 99 96 44 83 90 98 98 99 83 74 73 79 77 71 74 61 59 55 53 50 49 55
11 14 36 65 44 34 40 48 61 79 76 52 70 77 78 77 70 35 82 88 74 98 100 100 88 99 99 87 95 99 93 82 70 69 74 70 70 66 60 64 68 63 56 57 58
12 14 50 74 41 34 46 57 64 83 93 56 81 90 88 90 76 72 60 95 97 44 92 91 91 92 98 98 100 100 91 85 72 73 80 74 86 57 56 58 66 65 57 58 60
12 16 29 39 30 45 48 57 72 83 100 56 77 74 64 65 91 93 67 88 96 97 63 84 64 98 99 96 100 96 97 92 79 81 74 79 75 64 61 64 58 58 58 53 48
12 17 24 28 37 42 46 60 67 91 89 58 68 50 57 77 98 96 95 83 96 97 78 74 66 74 92 88 98 98 95 99 99 96 98 71 67 57 50 48 50 42 35 42 43
13 19 22 27 40 44 62 60 70 84 63 71 63 58 93 97 94 70 97 100 95 96 98 98 82 75 86 100 100 99 89 98 98 98 93 63 64 56 46 42 39 28 26 26 29
16 23 24 32 42 49 56 50 67 78 90 75 71 71 96 81 90 86 87 89 82 81 94 96 98 81 82 91 90 97 92 86 90 97 84 70 77 59 46 38 33 25 25 27 23
19 25 29 29 37 47 48 62 76 90 97 87 70 85 72 94 97 97 93 85 89 96 96 98 90 86 72 81 67 98 95 71 65 81 76 60 54 40 32 32 27 24 25 25 28
21 23 30 32 43 42 49 68 76 91 95 78 94 91 96 94 90 97 92 90 87 84 91 95 96 90 83 80 89 82 90 96 94 94 89 61 52 43 32 26 26 27 26 26 30
23 24 28 41 49 56 77 77 79 89 100 94 93 97 94 98 87 96 96 95 97 88 78 94 83 99 90 94 82 93 96 79 85 76 79 64 51 41 38 34 24 21 26 30 30
26 29 35 42 55 68 86 98 89 84 86 98 87 84 100 86 82 96 97 96 94 91 99 94 97 98 98 90 84 87 79 76 63 89 62 58 50 30 31 34 32 29 33 33 30
28 31 41 49 53 52 70 81 84 86 88 83 83 87 86 97 95 91 88 92 93 97 97 97 96 97 97 90 86 90 80 77 69 58 58 62 41 44 41 36 29 31 32 31 28
35 38 46 56 67 91 85 72 75 79 92 93 87 94 88 74 83 77 97 92 96 95 96 91 84 89 78 75 78 94 72 81 74 61 60 52 38 42 39 34 30 28 34 34 30
35 50 60 67 87 99 91 93 82 84 81 97 88 97 98 84 79 92 93 94 82 92 86 94 83 80 62 62 65 75 71 73 87 72 66 52 50 42 42 41 38 36 30 33 35
17 36 52 63 81 84 99 86 68 73 84 93 98 96 81 85 88 95 99 91 93 83 90 94 91 74 71 64 64 76 78 65 62 66 70 55 43 42 43 41 42 41 38 30 34
15 18 15 17 48 54 48 43 31 47 59 76 99 94 88 80 70 86 92 97 96 97 93 98 97 86 80 76 72 65 44 47 48 52 50 56 34 40 45 48 45 42 41 37 30

GFSSW_700_rhum_219.txt.gz
RH
22 18 14 10 6 5 4 4 4 4 4 7 18 28 20 14 10 7 6 8 8 9 22 28 24 24 65 80 79 95 94 81 57 43 38 37 35 30 43 40 39 33 31 29 24
23 18 14 10 7 6 6 6 5 5 4 4 4 4 15 25 18 10 8 8 8 8 10 28 28 25 62 83 95 96 84 66 60 52 52 50 48 40 41 42 41 37 36 33 24
21 15 12 12 10 10 9 8 6 5 4 4 3 3 3 4 10 21 14 11 11 13 9 11 38 32 50 80 99 94 82 71 60 57 58 56 55 60 46 42 38 38 38 35 26
15 14 14 13 9 7 5 4 3 2 2 2 3 3 3 3 7 11 18 18 14 13 13 10 22 34 48 80 85 98 94 86 81 74 54 60 64 65 53 44 42 43 42 40 36
16 16 12 8 5 4 3 2 2 2 2 2 3 5 4 3 2 6 24 26 26 25 16 12 10 29 63 62 87 98 98 96 93 77 55 56 66 62 56 49 45 45 44 44 42
18 12 7 5 3 2 3 3 3 4 6 5 12 70 22 10 13 10 17 28 56 59 85 42 18 22 68 99 88 97 99 100 100 98 76 68 75 64 57 54 49 48 47 46 41
15 8 5 3 3 4 4 6 11 14 18 19 32 76 50 20 22 29 21 30 60 65 70 80 64 60 66 89 93 96 99 100 96 98 94 91 86 71 63 60 54 51 49 49 47
10 5 3 4 5 6 10 14 17 18 18 23 31 42 41 38 37 36 31 33 54 91 60 80 74 73 96 99 99 99 100 95 81 89 87 90 75 80 72 65 59 56 54 51 46
6 4 4 6 8 11 16 20 19 25 27 32 44 54 63 45 67 53 31 24 41 58 57 51 76 70 78 100 99 99 96 94 94 74 84 94 74 60 77 73 64 59 56 52 50
4 4 7 8 12 27 29 24 25 32 57 74 62 79 65 68 68 96 96 75 42 44 36 52 86 71 75 93 97 100 94 83 87 78 93 91 90 81 68 77 69 63 59 56 55
4 7 8 10 30 44 32 22 28 48 32 54 58 62 39 56 74 91 96 96 100 100 98 72 91 99 40 64 90 91 87 86 68 78 85 87 91 84 76 71 76 73 66 63 60
6 7 9 12 46 40 32 37 50 85 31 53 81 75 66 75 59 36 56 83 92 94 100 100 93 46 71 76 99 99 99 98 83 71 77 81 82 86 83 68 61 63 59 61 58
7 8 10 16 26 31 37 45 52 66 57 56 80 82 78 60 61 59 80 65 90 94 96 94 85 99 98 93 99 98 99 95 82 81 90 84 90 85 68 69 53 56 56 59 58
8 10 12 16 25 32 42 44 53 64 76 54 74 88 69 65 72 67 81 74 89 99 90 92 93 100 94 97 99 99 98 99 86 83 87 90 80 66 68 63 64 49 52 48 57
8 11 15 19 24 35 43 54 53 57 94 50 66 60 64 89 89 90 99 83 65 90 93 85 74 97 99 75 99 99 94 89 97 94 77 78 72 61 52 49 49 55 55 58 54
11 13 17 23 30 38 47 44 43 64 79 51 56 75 74 84 91 100 99 94 88 92 99 85 72 85 93 99 87 89 100 100 99 98 98 76 74 62 54 35 40 47 54 62 60
10 15 22 23 28 31 38 34 49 74 59 70 57 77 70 91 90 98 96 97 85 94 94 82 56 85 72 98 99 99 100 98 98 98 96 78 76 63 50 41 35 36 44 49 51
12 17 21 24 28 31 32 41 54 68 83 67 66 62 75 95 81 95 96 84 96 98 92 96 97 92 89 85 91 98 99 94 94 96 94 82 79 62 44 42 40 36 38 40 40
17 18 20 33 38 33 38 54 76 91 97 94 63 79 79 97 96 95 100 88 80 95 94 97 74 59 78 70 95 99 98 96 78 78 73 77 64 45 48 42 41 41 35 29 24
19 19 25 34 38 41 50 67 86 100 99 85 98 95 99 95 87 96 98 98 97 85 94 93 97 94 78 94 99 93 95 96 85 92 89 67 61 50 42 36 36 32 27 24 24
21 22 30 33 39 52 67 82 76 89 100 90 98 100 88 99 93 96 97 97 99 98 95 91 95 99 87 94 88 96 99 97 82 71 79 73 53 44 47 34 34 30 27 28 31
21 28 34 37 42 48 76 90 78 74 98 95 94 95 96 93 95 96 97 97 96 99 96 95 94 98 99 89 93 88 84 81 74 97 66 57 44 36 34 42 36 30 24 24 31
16 31 39 40 44 56 69 78 84 85 89 95 92 99 97 92 92 85 93 96 96 97 98 97 94 96 97 94 94 94 82 79 66 66 61 61 44 41 36 32 33 33 31 26 28
14 31 48 53 58 70 70 80 66 71 81 90 97 99 88 79 75 92 96 95 96 96 98 91 93 95 86 72 79 85 82 81 75 62 61 52 41 40 37 37 33 31 35 35 31
17 29 34 56 65 77 74 79 34 55 51 84 88 92 100 99 76 90 89 89 99 97 92 96 91 85 93 71 69 69 72 76 75 73 58 47 40 41 45 46 41 35 30 32 33
18 18 15 16 40 49 33 27 27 21 32 52 83 87 88 99 100 90 92 93 97 94 99 100 96 88 70 63 69 71 86 95 80 72 67 51 47 48 51 51 44 39 36 29 31
25 23 20 16 16 21 23 32 26 32 23 34 76 77 87 91 82 74 77 76 96 99 98 97 88 92 85 80 73 76 64 77 79 75 72 64 45 43 48 47 44 43 41 35 33